• în Republica Moldova
  • Lista ţărilor
  • Pe 7 zile
  • Temperatura apei
  • Hartă satelitară
  • Meteo pe hartă
  • Widget-uri
  • user-avatar
    Intrare

    Meteo pe oră la Maracay

    Astăzi, 23 Ianuarie, Miercuri

    Timp Temperatura Precipitaţii Vânt Presiune Umiditate
    00:00 +22°C° 0 mm 1 m/s 713 mmHg 90%
    01:00 +22°C° 0 mm 1 m/s 713 mmHg 91%
    02:00 +21°C° 0 mm 1 m/s 713 mmHg 91%
    03:00 +21°C° 0 mm 1 m/s 713 mmHg 91%
    04:00 +21°C° 0 mm 1 m/s 713 mmHg 91%
    05:00 +22°C° 0 mm 1 m/s 713 mmHg 89%
    06:00 +22°C° 0 mm 1 m/s 714 mmHg 86%
    07:00 +23°C° 0 mm 1 m/s 714 mmHg 84%
    08:00 +25°C° 0 mm 1 m/s 715 mmHg 74%
    09:00 +27°C° 0 mm 2 m/s 715 mmHg 63%
    10:00 +29°C° 0 mm 2 m/s 715 mmHg 53%
    11:00 +30°C° 0 mm 2 m/s 715 mmHg 51%
    12:00 +30°C° 0 mm 2 m/s 714 mmHg 50%
    13:00 +31°C° 0 mm 2 m/s 713 mmHg 48%
    14:00 +30°C° 0 mm 2 m/s 713 mmHg 51%
    15:00 +29°C° 0 mm 2 m/s 712 mmHg 54%
    16:00 +28°C° 0 mm 2 m/s 712 mmHg 58%
    17:00 +27°C° 0 mm 2 m/s 712 mmHg 65%
    18:00 +25°C° 0 mm 2 m/s 712 mmHg 73%
    19:00 +24°C° 0 mm 2 m/s 712 mmHg 81%
    20:00 +23°C° 0 mm 1 m/s 712 mmHg 83%
    21:00 +23°C° 0 mm 1 m/s 712 mmHg 85%
    22:00 +22°C° 0 mm 1 m/s 713 mmHg 87%
    23:00 +22°C° 0 mm 1 m/s 712 mmHg 88%

    Mâine, 24 Ianuarie, Joi

    Timp Temperatura Precipitaţii Vânt Presiune Umiditate
    00:00 +22°C° 0 mm 1 m/s 712 mmHg 89%
    01:00 +22°C° 0 mm 1 m/s 712 mmHg 90%
    02:00 +21°C° 0 mm 1 m/s 712 mmHg 90%
    03:00 +21°C° 0 mm 1 m/s 712 mmHg 91%
    04:00 +21°C° 0 mm 1 m/s 712 mmHg 91%
    05:00 +22°C° 0 mm 1 m/s 712 mmHg 88%
    06:00 +22°C° 0 mm 1 m/s 713 mmHg 85%
    07:00 +23°C° 0 mm 1 m/s 713 mmHg 82%
    08:00 +25°C° 0 mm 1 m/s 714 mmHg 72%
    09:00 +28°C° 0 mm 1 m/s 714 mmHg 61%
    10:00 +30°C° 0 mm 1 m/s 715 mmHg 51%
    11:00 +31°C° 0 mm 1 m/s 714 mmHg 48%
    12:00 +32°C° 0 mm 2 m/s 713 mmHg 45%
    13:00 +34°C° 0 mm 2 m/s 712 mmHg 42%
    14:00 +32°C° 0 mm 2 m/s 712 mmHg 44%
    15:00 +31°C° 0 mm 2 m/s 711 mmHg 47%
    16:00 +30°C° 0 mm 2 m/s 710 mmHg 50%
    17:00 +28°C° 0 mm 2 m/s 711 mmHg 59%
    18:00 +26°C° 0 mm 2 m/s 711 mmHg 68%
    19:00 +24°C° 0 mm 1 m/s 711 mmHg 77%
    20:00 +24°C° 0 mm 1 m/s 712 mmHg 80%
    21:00 +23°C° 0 mm 1 m/s 712 mmHg 83%
    22:00 +23°C° 0 mm 1 m/s 712 mmHg 85%
    23:00 +22°C° 0 mm 1 m/s 712 mmHg 86%

    Poimâine, 25 Ianuarie, Vineri

    Timp Temperatura Precipitaţii Vânt Presiune Umiditate
    00:00 +22°C° 0 mm 1 m/s 712 mmHg 87%
    01:00 +22°C° 0 mm 1 m/s 711 mmHg 87%
    02:00 +22°C° 0 mm 1 m/s 711 mmHg 87%
    03:00 +21°C° 0 mm 1 m/s 711 mmHg 87%
    04:00 +21°C° 0 mm 1 m/s 711 mmHg 87%
    05:00 +22°C° 0 mm 1 m/s 712 mmHg 84%
    06:00 +22°C° 0 mm 1 m/s 712 mmHg 81%
    07:00 +23°C° 0 mm 1 m/s 713 mmHg 78%
    08:00 +26°C° 0 mm 1 m/s 714 mmHg 68%
    09:00 +28°C° 0 mm 1 m/s 714 mmHg 58%
    10:00 +31°C° 0 mm 1 m/s 715 mmHg 47%
    11:00 +32°C° 0 mm 1 m/s 714 mmHg 45%
    12:00 +33°C° 0 mm 1 m/s 713 mmHg 43%
    13:00 +33°C° 0 mm 1 m/s 712 mmHg 41%
    14:00 +32°C° 0 mm 2 m/s 711 mmHg 45%
    15:00 +31°C° 0 mm 2 m/s 710 mmHg 49%
    16:00 +30°C° 0 mm 2 m/s 709 mmHg 52%
    17:00 +28°C° 0 mm 2 m/s 710 mmHg 61%
    18:00 +26°C° 0 mm 2 m/s 710 mmHg 70%
    19:00 +24°C° 0 mm 1 m/s 710 mmHg 80%
    20:00 +24°C° 0 mm 1 m/s 711 mmHg 82%
    21:00 +23°C° 0 mm 1 m/s 711 mmHg 85%
    22:00 +23°C° 0 mm 1 m/s 711 mmHg 88%
    23:00 +22°C° 0 mm 1 m/s 711 mmHg 89%

    26 Ianuarie, Sâmbătă

    Timp Temperatura Precipitaţii Vânt Presiune Umiditate
    00:00 +22°C° 0 mm 1 m/s 711 mmHg 89%
    01:00 +22°C° 0 mm 1 m/s 711 mmHg 90%
    02:00 +21°C° 0 mm 1 m/s 711 mmHg 90%
    03:00 +21°C° 0 mm 1 m/s 711 mmHg 90%
    04:00 +21°C° 0 mm 1 m/s 711 mmHg 91%
    05:00 +22°C° 0 mm 1 m/s 711 mmHg 87%
    06:00 +22°C° 0 mm 1 m/s 712 mmHg 83%
    07:00 +23°C° 0 mm 1 m/s 713 mmHg 79%
    08:00 +26°C° 0 mm 1 m/s 713 mmHg 68%
    09:00 +28°C° 0 mm 1 m/s 714 mmHg 57%
    10:00 +31°C° 0 mm 1 m/s 714 mmHg 46%
    11:00 +32°C° 0 mm 1 m/s 713 mmHg 44%
    12:00 +32°C° 0 mm 1 m/s 712 mmHg 43%
    13:00 +33°C° 0 mm 1 m/s 711 mmHg 42%
    14:00 +32°C° 0 mm 2 m/s 711 mmHg 47%
    15:00 +30°C° 0 mm 2 m/s 710 mmHg 52%
    16:00 +29°C° 0 mm 2 m/s 709 mmHg 57%
    17:00 +28°C° 0.1 mm 2 m/s 710 mmHg 65%
    18:00 +26°C° 0.1 mm 2 m/s 710 mmHg 73%
    19:00 +25°C° 0.1 mm 2 m/s 710 mmHg 81%
    20:00 +24°C° 0 mm 1 m/s 711 mmHg 83%
    21:00 +24°C° 0 mm 1 m/s 711 mmHg 86%
    22:00 +23°C° 0 mm 1 m/s 711 mmHg 88%
    23:00 +23°C° 0 mm 1 m/s 711 mmHg 89%

    27 Ianuarie, Duminică

    Timp Temperatura Precipitaţii Vânt Presiune Umiditate
    00:00 +22°C° 0 mm 1 m/s 710 mmHg 90%
    01:00 +22°C° 0 mm 1 m/s 710 mmHg 90%
    02:00 +22°C° 0 mm 1 m/s 710 mmHg 90%
    03:00 +22°C° 0 mm 1 m/s 710 mmHg 90%
    04:00 +21°C° 0 mm 1 m/s 710 mmHg 90%
    05:00 +22°C° 0 mm 1 m/s 710 mmHg 86%
    06:00 +23°C° 0 mm 1 m/s 711 mmHg 83%
    07:00 +23°C° 0 mm 1 m/s 712 mmHg 79%
    08:00 +26°C° 0 mm 1 m/s 712 mmHg 68%
    09:00 +28°C° 0 mm 1 m/s 713 mmHg 57%
    10:00 +31°C° 0 mm 1 m/s 713 mmHg 45%
    11:00 +32°C° 0 mm 1 m/s 713 mmHg 44%
    12:00 +33°C° 0 mm 1 m/s 712 mmHg 42%
    13:00 +34°C° 0 mm 1 m/s 711 mmHg 40%
    14:00 +33°C° 0 mm 1 m/s 710 mmHg 44%
    15:00 +32°C° 0 mm 2 m/s 710 mmHg 48%
    16:00 +30°C° 0 mm 2 m/s 709 mmHg 52%
    17:00 +28°C° 0 mm 2 m/s 709 mmHg 62%
    18:00 +26°C° 0 mm 2 m/s 710 mmHg 72%
    19:00 +25°C° 0 mm 1 m/s 710 mmHg 82%
    20:00 +24°C° 0 mm 1 m/s 710 mmHg 84%
    21:00 +24°C° 0 mm 1 m/s 710 mmHg 87%
    22:00 +23°C° 0 mm 1 m/s 711 mmHg 89%
    23:00 +23°C° 0 mm 1 m/s 711 mmHg 89%

    28 Ianuarie, Luni

    Timp Temperatura Precipitaţii Vânt Presiune Umiditate
    00:00 +23°C° 0 mm 1 m/s 710 mmHg 90%
    01:00 +23°C° 0 mm 1 m/s 710 mmHg 90%
    02:00 +22°C° 0 mm 1 m/s 710 mmHg 90%
    03:00 +22°C° 0 mm 1 m/s 710 mmHg 90%
    04:00 +22°C° 0 mm 1 m/s 710 mmHg 89%
    05:00 +22°C° 0 mm 1 m/s 710 mmHg 86%
    06:00 +23°C° 0 mm 1 m/s 711 mmHg 83%
    07:00 +23°C° 0 mm 1 m/s 711 mmHg 79%
    08:00 +26°C° 0 mm 1 m/s 712 mmHg 69%
    09:00 +29°C° 0 mm 1 m/s 712 mmHg 58%
    10:00 +31°C° 0 mm 1 m/s 713 mmHg 47%
    11:00 +32°C° 0 mm 1 m/s 712 mmHg 46%
    12:00 +33°C° 0 mm 1 m/s 711 mmHg 45%
    13:00 +33°C° 0 mm 1 m/s 711 mmHg 44%
    14:00 +32°C° 0 mm 1 m/s 710 mmHg 50%
    15:00 +30°C° 0 mm 1 m/s 709 mmHg 55%
    16:00 +28°C° 0 mm 1 m/s 708 mmHg 61%
    17:00 +27°C° 0 mm 1 m/s 709 mmHg 67%
    18:00 +26°C° 0 mm 1 m/s 709 mmHg 74%
    19:00 +25°C° 0 mm 1 m/s 709 mmHg 80%
    20:00 +24°C° 0 mm 1 m/s 710 mmHg 83%
    21:00 +24°C° 0 mm 1 m/s 710 mmHg 86%
    22:00 +24°C° 0 mm 1 m/s 710 mmHg 89%
    23:00 +23°C° 0 mm 1 m/s 710 mmHg 90%
    Arată mai mult